This demonstration page uses our WeatherBlox Daily Observations layout. Learn more.

Left ArrowRight Arrow

38.20091, -84.87328

Hourly Observations for August 4, 2021

Temp ( °F °C ) Dew Point ( °F °C ) Humidity (%) Winds ( mph kmh ) Pressure ( in mb ) Visibility ( mi km ) Precip ( " mm )
12:53 am 00:53 Clear 62 16.7 58 14.4 86 86 NNW 5 7 30.03 1017 10 16 0.00 0.00
1:53 am 01:53 Clear 60 15.6 57 13.9 90 90 NNW 3 6 30.02 1017 10 16 0.00 0.00
2:53 am 02:53 Clear 61 16.1 56 13.3 84 84 NNW 3 6 30.02 1017 10 16 0.00 0.00
3:53 am 03:53 Clear 58 14.4 55 12.8 90 90 NNW 3 6 30.02 1017 10 16 0.00 0.00
4:53 am 04:53 Clear 59 15 55 12.8 87 87 N 3 6 30.02 1017 10 16 0.00 0.00
5:53 am 05:53 Clear 59 15 55 12.8 87 87 NNW 5 7 30.03 1017 10 16 0.00 0.00
6:53 am 06:53 Sunny 57 13.9 54 12.2 90 90 NNW 5 7 30.04 1017 10 16 0.00 0.00
7:53 am 07:53 Mostly Sunny 58 14.4 55 12.8 90 90 Calm 30.06 1018 10 16 0.00 0.00
8:53 am 08:53 Mostly Sunny 67 19.4 56 13.3 68 68 N 6 9 30.07 1018 10 16 0.00 0.00
9:53 am 09:53 Sunny 69 20.6 57 13.9 66 66 NNW 6 9 30.07 1018 10 16 0.00 0.00
10:53 am 10:53 Mostly Sunny 74 23.3 59 15 60 60 N 7 11 30.08 1019 10 16 0.00 0.00
11:53 am 11:53 Mostly Sunny 76 24.4 60 15.6 58 58 undefined N/A 30.07 1018 10 16 0.00 0.00
12:53 pm 12:53 Partly Cloudy 81 27.2 61 16.1 51 51 N 6 9 30.06 1018 10 16 0.00 0.00
1:53 pm 13:53 Mostly Cloudy 82 27.8 61 16.1 49 49 VRB 7 11 30.06 1018 10 16 0.00 0.00
2:53 pm 14:53 Partly Cloudy 83 28.3 62 16.7 49 49 NNE 9 15 30.04 1017 10 16 0.00 0.00
3:53 pm 15:53 Mostly Cloudy 83 28.3 63 17.2 51 51 NNE 8 13 30.04 1017 10 16 0.00 0.00
4:53 pm 16:53 Mostly Cloudy 78 25.6 64 17.8 62 62 N 9 15 30.04 1017 10 16 0.00 0.00
5:17 pm 17:17 Mostly Cloudy with Nearby Thunderstorms 80 26.7 64 17.8 58 58 NNE 12 19 30.01 1016 10 16 0.00 0.00
5:32 pm 17:32 Mostly Cloudy 79 26.1 64 17.8 60 60 NNE 9 15 30.01 1016 10 16 0.00 0.00
5:53 pm 17:53 Partly Cloudy with Nearby Thunderstorms 80 26.7 64 17.8 58 58 N 12 19 30.03 1017 10 16 0.00 0.00
6:53 pm 18:53 Mostly Cloudy with Nearby Thunderstorms 80 26.7 65 18.3 60 60 N 5 7 30.04 1017 10 16 0.00 0.00
7:19 pm 19:19 Cloudy 75 23.9 62 16.7 64 64 SSE 8 13 30.04 1017 10 16 0.00 0.00
7:53 pm 19:53 Mostly Cloudy 73 22.8 64 17.8 74 74 Calm 30.05 1018 10 16 0.00 0.00
8:53 pm 20:53 Clear 74 23.3 62 16.7 67 67 N 3 6 30.04 1017 10 16 0.00 0.00
9:53 pm 21:53 Clear 71 21.7 63 17.2 76 76 NNW 3 6 30.06 1018 10 16 0.00 0.00
10:53 pm 22:53 Clear 67 19.4 63 17.2 87 87 Calm 30.07 1018 10 16 0.00 0.00
11:53 pm 23:53 Clear 66 18.9 63 17.2 90 90 Calm 30.08 1019 10 16 0.00 0.00

Powered by AerisWeather